This demonstration page uses our WeatherBlox Daily Observations layout. Learn more.

Left ArrowRight Arrow

44.31136, -96.79839

Hourly Observations for August 16, 2018

Temp ( °F °C ) Dew Point ( °F °C ) Humidity (%) Winds ( mph kmh ) Pressure ( in mb ) Visibility ( mi km ) Precip ( " mm )
12:56 am 00:56 Mostly Clear 65 18.3 64 17.8 97 97 Calm 30.01 1016 10 16 0.00 0.00
1:56 am 01:56 Cloudy 65 18.3 64 17.8 97 97 N 3 6 30.01 1016 10 16 0.00 0.00
2:56 am 02:56 Cloudy 65 18.3 64 17.8 97 97 N 3 6 29.99 1016 10 16 0.00 0.00
3:56 am 03:56 Cloudy 65 18.3 64 17.8 97 97 Calm 29.99 1016 10 16 0.00 0.00
4:56 am 04:56 Cloudy 66 18.9 64 17.8 93 93 SSE 3 6 29.99 1016 10 16 0.00 0.00
5:56 am 05:56 Partly Cloudy 64 17.8 63 17.2 96 96 W 3 6 30.01 1016 9 14 0.00 0.00
6:09 am 06:09 Mostly Clear with Mist and Fog 63 17 63 17 100 100 Calm 29.97 1015 3 4 0.00 0.00
6:13 am 06:13 Mostly Cloudy with Mist and Fog 63 17 63 17 100 100 Calm 29.97 1015 1 2 0.00 0.00
6:16 am 06:16 Mostly Cloudy with Fog 63 17 63 17 100 100 Calm 29.97 1015 1 1 0.00 0.00
6:26 am 06:26 Mostly Cloudy with Fog 63 17 63 17 100 100 N 3 6 29.97 1015 0 0 0.00 0.00
6:41 am 06:41 Cloudy with Fog 63 17 63 17 100 100 Calm 29.97 1015 1 1 0.00 0.00
6:44 am 06:44 Cloudy with Mist and Fog 63 17 63 17 100 100 Calm 29.97 1015 1 2 0.00 0.00
6:46 am 06:46 Cloudy with Mist and Fog 64 18 63 17 94 94 Calm 29.97 1015 3 4 0.00 0.00
6:56 am 06:56 Cloudy 64 17.8 63 17.2 96 96 Calm 30.02 1017 8 13 0.00 0.00
7:56 am 07:56 Partly Cloudy with Mist and Fog 65 18.3 65 18.3 100 100 NNW 3 6 30.02 1017 6 10 0.00 0.00
8:56 am 08:56 Mostly Cloudy 66 18.9 65 18.3 96 96 NW 3 6 30.03 1017 10 16 0.00 0.00
9:40 am 09:40 Mostly Cloudy 70 21 66 19 88 88 Calm 29.97 1015 10 16 0.00 0.00
9:56 am 09:56 Mostly Sunny 69 20.6 66 18.9 90 90 NNW 5 7 30.03 1017 10 16 0.00 0.00
10:56 am 10:56 Partly Cloudy 70 21.1 66 18.9 87 87 Calm 30.05 1018 10 16 0.00 0.00
11:46 am 11:46 Mostly Cloudy 72 22 66 19 83 83 NNW 7 11 29.97 1015 10 16 0.00 0.00
11:56 am 11:56 Partly Cloudy 72 22.2 67 19.4 84 84 WNW 5 7 30.05 1018 10 16 0.00 0.00
12:46 pm 12:46 Mostly Cloudy 75 24 66 19 74 74 NW 6 9 29.97 1015 10 16 0.00 0.00
12:56 pm 12:56 Mostly Cloudy 75 23.9 67 19.4 76 76 NW 7 11 30.04 1017 10 16 0.00 0.00
1:09 pm 13:09 Mostly Cloudy with Nearby Thunderstorms 75 24 66 19 74 74 NW 5 7 29.97 1015 10 16 0.00 0.00
1:23 pm 13:23 Mostly Cloudy 75 24 66 19 74 74 VRB 3 6 29.97 1015 10 16 0.00 0.00
1:48 pm 13:48 Cloudy with Thunderstorms 66 19 64 18 94 94 SE 17 28 30.00 1016 6 10 0.08 2.03
1:56 pm 13:56 Cloudy with Thunderstorms 66 18.9 64 17.8 93 93 SSE 15 24 30.08 1019 7 11 0.12 3.05
2:07 pm 14:07 Cloudy with Heavy Rain 64 18 64 18 100 100 SSE 9 15 30.03 1017 5 8 0.12 3.05
2:14 pm 14:14 Cloudy with Thunderstorms 66 19 64 18 94 94 S 8 13 30.00 1016 7 11 0.15 3.81
2:45 pm 14:45 Mostly Cloudy 66 19 64 18 94 94 SW 7 11 30.00 1016 10 16 0.17 4.32
2:56 pm 14:56 Mostly Cloudy 67 19.4 65 18.3 93 93 SW 5 7 30.07 1018 10 16 0.17 4.32
3:56 pm 15:56 Partly Cloudy 70 21.1 65 18.3 84 84 Calm 30.06 1018 10 16 0.00 0.00
4:56 pm 16:56 Mostly Sunny 72 22.2 65 18.3 79 79 NNW 5 7 30.05 1018 10 16 0.00 0.00
5:56 pm 17:56 Sunny 74 23.3 66 18.9 76 76 NNW 10 17 30.04 1017 10 16 0.00 0.00
6:56 pm 18:56 Sunny 75 23.9 66 18.9 74 74 NNW 8 13 30.04 1017 10 16 0.00 0.00
7:56 pm 19:56 Sunny 74 23.3 65 18.3 74 74 NE 5 7 30.05 1018 10 16 0.00 0.00
8:56 pm 20:56 Clear 72 22.2 66 18.9 82 82 ENE 3 6 30.06 1018 10 16 0.00 0.00
9:56 pm 21:56 Clear 68 20 66 18.9 93 93 NNW 3 6 30.09 1019 10 16 0.00 0.00
10:56 pm 22:56 Clear 65 18.3 64 17.8 97 97 NNW 3 6 30.11 1020 7 11 0.00 0.00
11:56 pm 23:56 Clear 66 18.9 65 18.3 96 96 Calm 30.11 1020 10 16 0.00 0.00

Powered by AerisWeather